User: anonymous   Login
Location: Vancouver
(49.2500°N, 123.1330°W)
Time: 20:30:59
(UTC-08:00)
Language:

Oscar 11 - Orbit

View from above orbital plane
View from above orbital plane
View from above satellite
View from above satellite

Ground track
Ground track

The orbit data is extracted from the following two-line orbital elements,

1 14781U 84021B   17022.55028094  .00000086  00000-0  16870-4 0  9991
2 14781  97.7196  73.4634 0007559 325.0171  35.0545 14.82850069768763
Epoch (UTC): 22 January 2017 13:12:24
Eccentricity: 0.0007559
inclination: 97.7196°
perigee height: 615 km
apogee height: 625 km
right ascension of ascending node: 73.4634°
argument of perigee: 325.0171°
revolutions per day: 14.82850069
mean anomaly at epoch: 35.0545°
orbit number at epoch: 76876

The dashed part of the orbit path shows where the satellite is in the earth's shadow,  

DLR